This is the latest recevied weather packets stored in our database for station/object KR4ELZ. If no packets are shown the sender has not sent any weather packets the latest 10 day(s).
| Time | Temp. | Humidity | Pressure | Rain* | Wind** | Luminosity | Snow |
|---|---|---|---|---|---|---|---|
| 1777839016 | 22.78° C | 36% | 1018.3 hPa | 0 mm | - | 523 W/m² | - |
| 1777838712 | 22.78° C | 36% | 1018.3 hPa | 0 mm | - | 533 W/m² | - |
| 1777838409 | 22.78° C | 35% | 1018.5 hPa | 0 mm | - | 544 W/m² | - |
| 1777838107 | 22.78° C | 37% | 1018.6 hPa | 0 mm | - | 555 W/m² | - |
| 1777837803 | 22.78° C | 41% | 1018.6 hPa | 0 mm | - | 563 W/m² | - |
| 1777837500 | 22.78° C | 36% | 1018.9 hPa | 0 mm | - | 573 W/m² | - |
| 1777837195 | 23.33° C | 36% | 1018.6 hPa | 0 mm | - | 583 W/m² | - |
| 1777836891 | 23.89° C | 39% | 1019.1 hPa | 0 mm | - | 588 W/m² | - |
| 1777836587 | 22.22° C | 37% | 1019 hPa | 0 mm | - | 599 W/m² | - |
| 1777836283 | 22.22° C | 38% | 1019.3 hPa | 0 mm | - | 603 W/m² | - |
| 1777835979 | 21.67° C | 38% | 1019.3 hPa | 0 mm | - | 613 W/m² | - |
| 1777835677 | 22.22° C | 36% | 1019.3 hPa | 0 mm | - | 622 W/m² | - |
| 1777835372 | 22.22° C | 35% | 1019.4 hPa | 0 mm | - | 628 W/m² | - |
| 1777835070 | 22.22° C | 36% | 1019.3 hPa | 0 mm | - | 633 W/m² | - |
| 1777834767 | 21.11° C | 37% | 1019.5 hPa | 0 mm | - | 616 W/m² | - |
| 1777834464 | 21.11° C | 38% | 1019.4 hPa | 0 mm | - | 175 W/m² | - |
| 1777834163 | 20.56° C | 39% | 1019.7 hPa | 0 mm | - | 50 W/m² | - |
| 1777833860 | 20.56° C | 38% | 1019.8 hPa | 0 mm | - | 50 W/m² | - |
| 1777833556 | 20.56° C | 37% | 1019.8 hPa | 0 mm | - | 274 W/m² | - |
| 1777833252 | 21.11° C | 39% | 1020 hPa | 0 mm | - | 60 W/m² | - |
| 1777832950 | 21.11° C | 39% | 1020.1 hPa | 0 mm | - | 665 W/m² | - |
| 1777832649 | 20.56° C | 37% | 1020.1 hPa | 0 mm | - | 49 W/m² | - |
| 1777832345 | 20.56° C | 40% | 1020.3 hPa | 0 mm | - | 103 W/m² | - |
| 1777832042 | 20.56° C | 40% | 1020.3 hPa | 0 mm | - | 544 W/m² | - |
| 1777831739 | 21.11° C | 39% | 1020.4 hPa | 0 mm | - | 678 W/m² | - |
* Rain latest hour (hover to see other rain measurements)
** Current wind speed in m/s (hover to see current wind gust speed)